When you browse on this site, cookies collect data to enhance your experience and personalize the content and advertising you see.
Visit our Privacy Policy to learn more. By continuing to use the site, you agree to this use of cookies and data.
  • In Romania
  • List of Countries
  • For 7 days
  • Water Temperature
  • Satellite Maps
  • Weather Map
  • Weather Widgets
  • user-avatar
    Login

    Hourly Weather Durulino

    Today, 21 November, Wednesday

    Time Temperature Precipitation Wind Pressure Humidity
    00:00 -5°C° 0 mm 3 mps 754 mmHg 80%
    01:00 -5°C° 0 mm 3 mps 755 mmHg 83%
    02:00 -5°C° 0 mm 3 mps 755 mmHg 85%
    03:00 -4°C° 0 mm 3 mps 755 mmHg 85%
    04:00 -4°C° 0 mm 3 mps 755 mmHg 85%
    05:00 -2°C° 0 mm 3 mps 755 mmHg 85%
    06:00 -2°C° 0 mm 3 mps 755 mmHg 85%
    07:00 -4°C° 0 mm 3 mps 755 mmHg 86%
    08:00 -4°C° 0 mm 3 mps 755 mmHg 86%
    09:00 -2°C° 0 mm 3 mps 755 mmHg 85%
    10:00 -2°C° 0 mm 3 mps 756 mmHg 84%
    11:00 -2°C° 0 mm 2 mps 756 mmHg 83%
    12:00 -2°C° 0 mm 3 mps 756 mmHg 84%
    13:00 -2°C° 0 mm 3 mps 755 mmHg 84%
    14:00 -2°C° 0 mm 3 mps 755 mmHg 85%
    15:00 -4°C° 0 mm 3 mps 755 mmHg 86%
    16:00 -4°C° 0 mm 3 mps 755 mmHg 88%
    17:00 -4°C° 0 mm 3 mps 755 mmHg 89%
    18:00 -4°C° 0 mm 3 mps 755 mmHg 88%
    19:00 -4°C° 0 mm 4 mps 754 mmHg 87%
    20:00 -4°C° 0 mm 4 mps 754 mmHg 85%
    21:00 -4°C° 0 mm 4 mps 754 mmHg 85%
    22:00 -3°C° 0 mm 4 mps 753 mmHg 84%
    23:00 -2°C° 0 mm 3 mps 753 mmHg 84%

    Tomorrow, 22 November, Thursday

    Time Temperature Precipitation Wind Pressure Humidity
    00:00 -3°C° 0 mm 4 mps 753 mmHg 84%
    01:00 -4°C° 0 mm 4 mps 752 mmHg 85%
    02:00 -4°C° 0 mm 4 mps 752 mmHg 85%
    03:00 -4°C° 0 mm 4 mps 752 mmHg 85%
    04:00 -4°C° 0 mm 4 mps 751 mmHg 85%
    05:00 -4°C° 0 mm 4 mps 751 mmHg 85%
    06:00 -4°C° 0 mm 4 mps 750 mmHg 85%
    07:00 -4°C° 0 mm 4 mps 750 mmHg 84%
    08:00 -4°C° 0 mm 4 mps 750 mmHg 83%
    09:00 -5°C° 0 mm 5 mps 750 mmHg 81%
    10:00 -4°C° 0 mm 5 mps 749 mmHg 79%
    11:00 -4°C° 0 mm 5 mps 749 mmHg 77%
    12:00 -2°C° 0 mm 5 mps 749 mmHg 77%
    13:00 -2°C° 0 mm 5 mps 748 mmHg 77%
    14:00 -2°C° 0 mm 5 mps 748 mmHg 77%
    15:00 -2°C° 0 mm 5 mps 748 mmHg 78%
    16:00 -2°C° 0 mm 5 mps 748 mmHg 80%
    17:00 -1°C° 0 mm 5 mps 748 mmHg 81%
    18:00 -1°C° 0 mm 5 mps 748 mmHg 81%
    19:00 -1°C° 0 mm 5 mps 748 mmHg 81%
    20:00 -1°C° 0 mm 5 mps 748 mmHg 82%
    21:00 -2°C° 0 mm 4 mps 749 mmHg 82%
    22:00 -2°C° 0 mm 4 mps 749 mmHg 83%
    23:00 -2°C° 0 mm 4 mps 750 mmHg 83%

    Day after tomorrow, 23 November, Friday

    Time Temperature Precipitation Wind Pressure Humidity
    00:00 -3°C° 0 mm 4 mps 750 mmHg 84%
    01:00 -4°C° 0 mm 4 mps 751 mmHg 85%
    02:00 -4°C° 0 mm 3 mps 751 mmHg 87%
    03:00 -4°C° 0 mm 3 mps 752 mmHg 87%
    04:00 -5°C° 0 mm 3 mps 752 mmHg 87%
    05:00 -5°C° 0 mm 3 mps 753 mmHg 88%
    06:00 -4°C° 0 mm 2 mps 753 mmHg 88%
    07:00 -5°C° 0 mm 2 mps 754 mmHg 88%
    08:00 -5°C° 0 mm 2 mps 754 mmHg 88%
    09:00 -4°C° 0 mm 2 mps 754 mmHg 84%
    10:00 -4°C° 0 mm 2 mps 755 mmHg 80%
    11:00 -1°C° 0 mm 1 mps 755 mmHg 75%
    12:00 -3°C° 0 mm 2 mps 755 mmHg 75%
    13:00 -3°C° 0 mm 2 mps 755 mmHg 75%
    14:00 -3°C° 0 mm 2 mps 755 mmHg 75%
    15:00 -3°C° 0 mm 2 mps 755 mmHg 78%
    16:00 -4°C° 0 mm 2 mps 755 mmHg 82%
    17:00 -4°C° 0 mm 2 mps 754 mmHg 86%
    18:00 -5°C° 0 mm 3 mps 754 mmHg 86%
    19:00 -4°C° 0 mm 3 mps 754 mmHg 86%
    20:00 -4°C° 0 mm 3 mps 753 mmHg 86%
    21:00 -4°C° 0 mm 3 mps 753 mmHg 85%
    22:00 -2°C° 0 mm 3 mps 753 mmHg 83%
    23:00 -3°C° 0 mm 4 mps 752 mmHg 81%

    24 November, Saturday

    Time Temperature Precipitation Wind Pressure Humidity
    00:00 -3°C° 0 mm 4 mps 752 mmHg 81%
    01:00 -3°C° 0 mm 4 mps 751 mmHg 81%
    02:00 -4°C° 0 mm 5 mps 751 mmHg 81%
    03:00 -4°C° 0 mm 5 mps 750 mmHg 80%
    04:00 -4°C° 0 mm 5 mps 750 mmHg 79%
    05:00 -4°C° 0 mm 5 mps 749 mmHg 78%
    06:00 -4°C° 0 mm 5 mps 749 mmHg 78%
    07:00 -4°C° 0 mm 5 mps 748 mmHg 78%
    08:00 -4°C° 0 mm 5 mps 748 mmHg 77%
    09:00 -4°C° 0 mm 5 mps 748 mmHg 77%
    10:00 -4°C° 0 mm 5 mps 747 mmHg 76%
    11:00 -4°C° 0 mm 5 mps 747 mmHg 75%
    12:00 -4°C° 0 mm 5 mps 747 mmHg 75%
    13:00 -4°C° 0 mm 4 mps 746 mmHg 75%
    14:00 -4°C° 0 mm 4 mps 746 mmHg 74%
    15:00 -4°C° 0 mm 4 mps 746 mmHg 76%
    16:00 -4°C° 0 mm 4 mps 745 mmHg 77%
    17:00 -4°C° 0 mm 4 mps 745 mmHg 78%
    18:00 -4°C° 0 mm 4 mps 745 mmHg 78%
    19:00 -4°C° 0 mm 4 mps 745 mmHg 79%
    20:00 -4°C° 0 mm 4 mps 744 mmHg 79%
    21:00 -4°C° 0.1 mm 4 mps 744 mmHg 81%
    22:00 -4°C° 0.1 mm 4 mps 744 mmHg 82%
    23:00 -4°C° 0.1 mm 4 mps 744 mmHg 83%

    25 November, Sunday

    Time Temperature Precipitation Wind Pressure Humidity
    00:00 -4°C° 0.1 mm 3 mps 744 mmHg 84%
    01:00 -4°C° 0.1 mm 3 mps 744 mmHg 85%
    02:00 -2°C° 0.1 mm 3 mps 744 mmHg 86%
    03:00 -2°C° 0 mm 3 mps 745 mmHg 86%
    04:00 -2°C° 0 mm 3 mps 745 mmHg 86%
    05:00 -2°C° 0 mm 2 mps 745 mmHg 86%
    06:00 -3°C° 0 mm 2 mps 745 mmHg 88%
    07:00 -3°C° 0 mm 2 mps 746 mmHg 89%
    08:00 -3°C° 0 mm 2 mps 746 mmHg 90%
    09:00 -3°C° 0 mm 2 mps 746 mmHg 87%
    10:00 -3°C° 0 mm 2 mps 747 mmHg 84%
    11:00 -2°C° 0 mm 2 mps 747 mmHg 81%
    12:00 0°C° 0 mm 1 mps 747 mmHg 82%
    13:00 -1°C° 0 mm 1 mps 747 mmHg 83%
    14:00 -1°C° 0 mm 1 mps 747 mmHg 84%
    15:00 -1°C° 0 mm 1 mps 747 mmHg 86%
    16:00 -2°C° 0 mm 1 mps 747 mmHg 88%
    17:00 -3°C° 0 mm 1 mps 747 mmHg 91%
    18:00 -3°C° 0 mm 1 mps 747 mmHg 91%
    19:00 -4°C° 0 mm 0 mps 746 mmHg 91%
    20:00 -4°C° 0 mm 0 mps 746 mmHg 91%
    21:00 -4°C° 0 mm 0 mps 746 mmHg 91%
    22:00 -3°C° 0 mm 1 mps 746 mmHg 91%
    23:00 -3°C° 0 mm 1 mps 745 mmHg 91%

    26 November, Monday

    Time Temperature Precipitation Wind Pressure Humidity
    00:00 -4°C° 0 mm 0 mps 745 mmHg 91%
    01:00 -4°C° 0 mm 0 mps 745 mmHg 91%
    02:00 -4°C° 0 mm 0 mps 744 mmHg 90%
    03:00 -4°C° 0.1 mm 0 mps 744 mmHg 91%
    04:00 -3°C° 0.1 mm 1 mps 743 mmHg 91%
    05:00 -3°C° 0.1 mm 1 mps 743 mmHg 92%
    06:00 -4°C° 0.1 mm 1 mps 743 mmHg 92%
    07:00 -4°C° 0.1 mm 1 mps 743 mmHg 92%
    08:00 -4°C° 0.1 mm 1 mps 743 mmHg 92%
    09:00 -5°C° 0 mm 2 mps 743 mmHg 89%
    10:00 -5°C° 0 mm 2 mps 743 mmHg 86%
    11:00 -5°C° 0 mm 3 mps 743 mmHg 83%
    12:00 -5°C° 0 mm 3 mps 743 mmHg 81%
    13:00 -5°C° 0 mm 3 mps 743 mmHg 79%
    14:00 -5°C° 0 mm 3 mps 743 mmHg 77%
    15:00 -5°C° 0 mm 3 mps 743 mmHg 78%
    16:00 -5°C° 0 mm 3 mps 744 mmHg 78%
    17:00 -6°C° 0 mm 3 mps 744 mmHg 78%
    18:00 -6°C° 0 mm 3 mps 744 mmHg 80%
    19:00 -6°C° 0 mm 2 mps 744 mmHg 82%
    20:00 -6°C° 0 mm 2 mps 744 mmHg 83%
    21:00 -7°C° 0 mm 2 mps 745 mmHg 85%
    22:00 -7°C° 0 mm 2 mps 745 mmHg 86%
    23:00 -7°C° 0 mm 2 mps 745 mmHg 87%
    Show more